Regional Weather Roundup
Issued by NWS

Home | Current Version | Previous Version | Graphics & Text | Print | Product List | Glossary On
Versions: 1 2 3 4 5 6 7 8 9 10 11 12 13 14 15 16 17 18 19 20 21 22 23 24 25 26 27 28 29 30 31 32 33 34 35 36 37 38 39 40 41 42 43 44 45 46 47 48 49 50
622
ASUS43 KBIS 181902
RWRND

NORTH DAKOTA REGIONAL WEATHER ROUNDUP
NATIONAL WEATHER SERVICE BISMARCK ND
100 PM CST WED JAN 18 2017

NOTE: "FAIR" INDICATES FEW OR NO CLOUDS BELOW 12,000 FEET WITH NO
SIGNIFICANT WEATHER AND/OR OBSTRUCTIONS TO VISIBILITY.


NDZ001>003-009>011-017-182000-
NORTHWEST NORTH DAKOTA

CITY           SKY/WX    TMP DP  RH WIND       PRES   REMARKS
WILLISTON      FAIR      36  25  64 SW7       29.60F
MINOT          FAIR      43  28  55 SW13      29.60F
MINOT AFB      CLOUDY    40  29  65 SW10      29.58F
$$

NDZ018>021-031>035-040>046-182000-
SOUTHWEST NORTH DAKOTA

CITY           SKY/WX    TMP DP  RH WIND       PRES   REMARKS
BISMARCK       FAIR      30  22  72 E5        29.70F
DICKINSON      FAIR      38  26  62 S16       29.63F
GARRISON         N/A     36  26  67 CALM      29.64F
HETTINGER ARPT SUNNY     39  25  57 W5        29.69F
$$

NDZ004>008-012>016-024-026-027-054-182000-
NORTHEAST NORTH DAKOTA

CITY           SKY/WX    TMP DP  RH WIND       PRES   REMARKS
GRAND FORKS    CLOUDY    32  32 100 S8        29.68F
GRND FRKS AFB  CLOUDY    36  27  69 S8        29.68F
DEVILS LAKE    MIX PCPN  37  28  70 SW9       29.66F
$$

NDZ022-023-025-028>030-036>039-047>053-182000-
SOUTHEAST NORTH DAKOTA

CITY           SKY/WX    TMP DP  RH WIND       PRES   REMARKS
FARGO          SUNNY     34  25  69 S9        29.73F
JAMESTOWN      FAIR      35  29  78 S8        29.68F
$$





USA.gov is the U.S. government's official web portal to all federal, state and local government web resources and services.